Waarnemingen

Advertentie
Mijn weer
Gijon, Spanje (8014): temperatuur & dauwpunt: 17.05.2018 01:00:00 - 23.05.2018 01:00:00 (CEST)Gijon, Spanje (8014): windsnelheid: 17.05.2018 01:00:00 - 23.05.2018 01:00:00 (CEST)Gijon, Spanje (8014): windrichting: 17.05.2018 01:00:00 - 23.05.2018 01:00:00 (CEST)Gijon, Spanje (8014): luchtdruk: 17.05.2018 01:00:00 - 23.05.2018 01:00:00 (CEST)Gijon, Spanje (8014): zicht: 17.05.2018 01:00:00 - 23.05.2018 01:00:00 (CEST)
Datum & Tijd tt [°C] td [°C] ff [km/u] ff [kn] dd ppp [hPa] vv [km]
23.05.2018 01:00:00 - - - - - - -
23.05.2018 00:00:00 - - - - - - -
22.05.2018 23:00:00 - - - - - - -
22.05.2018 22:00:00 - - - - - - -
22.05.2018 21:00:00 - - - - - - -
22.05.2018 20:00:00 19,2 15,9 9 5 ONO 1015,4 30
22.05.2018 19:00:00 - - - - - - -
22.05.2018 18:00:00 - - - - - - -
22.05.2018 17:00:00 19,2 15,9 8 4 O 1015,1 20
22.05.2018 16:00:00 - - - - - - -
22.05.2018 15:00:00 - - - - - - -
22.05.2018 14:00:00 18,6 13,2 9 5 NNO 1015,1 20
22.05.2018 13:00:00 - - - - - - -
22.05.2018 12:00:00 - - - - - - -
22.05.2018 11:00:00 17,8 13,5 5 3 ONO 1014,9 20
22.05.2018 10:00:00 - - - - - - -
22.05.2018 09:00:00 - - - - - - -
22.05.2018 08:00:00 14,8 11,4 8 4 ZZW 1013,6 20
22.05.2018 07:00:00 - - - - - - -
22.05.2018 06:00:00 - - - - - - -
22.05.2018 05:00:00 - - - - - - -
22.05.2018 04:00:00 - - - - - - -
22.05.2018 03:00:00 - - - - - - -
22.05.2018 02:00:00 - - - - - - -
22.05.2018 01:00:00 - - - - - - -
22.05.2018 00:00:00 - - - - - - -
21.05.2018 23:00:00 - - - - - - -
21.05.2018 22:00:00 - - - - - - -
21.05.2018 21:00:00 - - - - - - -
21.05.2018 20:00:00 18,8 13,6 8 4 NO 1011,2 30
21.05.2018 19:00:00 - - - - - - -
21.05.2018 18:00:00 - - - - - - -
21.05.2018 17:00:00 19,0 13,8 9 5 ONO 1011,0 30
21.05.2018 16:00:00 - - - - - - -
21.05.2018 15:00:00 - - - - - - -
21.05.2018 14:00:00 19,0 13,4 11 6 NO 1011,2 30
21.05.2018 13:00:00 - - - - - - -
21.05.2018 12:00:00 - - - - - - -
21.05.2018 11:00:00 18,0 13,1 5 3 O 1011,1 20
21.05.2018 10:00:00 - - - - - - -
21.05.2018 09:00:00 - - - - - - -
21.05.2018 08:00:00 14,2 11,2 4 2 ZZW 1010,8 20
21.05.2018 07:00:00 - - - - - - -
21.05.2018 06:00:00 - - - - - - -
21.05.2018 05:00:00 - - - - - - -
21.05.2018 04:00:00 - - - - - - -
21.05.2018 03:00:00 - - - - - - -
21.05.2018 02:00:00 - - - - - - -
21.05.2018 01:00:00 - - - - - - -
21.05.2018 00:00:00 - - - - - - -
20.05.2018 23:00:00 - - - - - - -
20.05.2018 22:00:00 - - - - - - -
20.05.2018 21:00:00 - - - - - - -
20.05.2018 20:00:00 18,0 14,5 8 4 O 1014,0 25
20.05.2018 19:00:00 - - - - - - -
20.05.2018 18:00:00 - - - - - - -
20.05.2018 17:00:00 18,8 13,6 11 6 O 1014,9 30
20.05.2018 16:00:00 - - - - - - -
20.05.2018 15:00:00 - - - - - - -
20.05.2018 14:00:00 18,4 12,6 9 5 O 1016,6 30
20.05.2018 13:00:00 - - - - - - -
20.05.2018 12:00:00 - - - - - - -
20.05.2018 11:00:00 17,4 12,7 5 3 O 1017,8 20
20.05.2018 10:00:00 - - - - - - -
20.05.2018 09:00:00 - - - - - - -
20.05.2018 08:00:00 14,0 11,3 2 1 Z 1018,0 15
20.05.2018 07:00:00 - - - - - - -
20.05.2018 06:00:00 - - - - - - -
20.05.2018 05:00:00 - - - - - - -
20.05.2018 04:00:00 - - - - - - -
20.05.2018 03:00:00 - - - - - - -
20.05.2018 02:00:00 - - - - - - -
20.05.2018 01:00:00 - - - - - - -
20.05.2018 00:00:00 - - - - - - -
19.05.2018 23:00:00 - - - - - - -
19.05.2018 22:00:00 - - - - - - -
19.05.2018 21:00:00 - - - - - - -
19.05.2018 20:00:00 17,8 14,7 9 5 NO 1018,9 25
19.05.2018 19:00:00 - - - - - - -
19.05.2018 18:00:00 - - - - - - -
19.05.2018 17:00:00 18,8 14,3 9 5 O 1019,6 25
19.05.2018 16:00:00 - - - - - - -
19.05.2018 15:00:00 - - - - - - -
19.05.2018 14:00:00 18,4 13,5 8 4 O 1020,1 20
19.05.2018 13:00:00 - - - - - - -
19.05.2018 12:00:00 - - - - - - -
19.05.2018 11:00:00 17,4 12,9 9 5 O 1020,2 15
19.05.2018 10:00:00 - - - - - - -
19.05.2018 09:00:00 - - - - - - -
19.05.2018 08:00:00 15,4 13,6 5 3 OZO 1019,8 9
19.05.2018 07:00:00 - - - - - - -
19.05.2018 06:00:00 - - - - - - -
19.05.2018 05:00:00 - - - - - - -
19.05.2018 04:00:00 - - - - - - -
19.05.2018 03:00:00 - - - - - - -
19.05.2018 02:00:00 - - - - - - -
19.05.2018 01:00:00 - - - - - - -
19.05.2018 00:00:00 - - - - - - -
18.05.2018 23:00:00 - - - - - - -
18.05.2018 22:00:00 - - - - - - -
18.05.2018 21:00:00 - - - - - - -
18.05.2018 20:00:00 18,1 15,4 9 5 ONO 1018,7 10
18.05.2018 19:00:00 - - - - - - -
18.05.2018 18:00:00 - - - - - - -
18.05.2018 17:00:00 18,8 15,1 9 5 O 1019,0 10
18.05.2018 16:00:00 - - - - - - -
18.05.2018 15:00:00 - - - - - - -
18.05.2018 14:00:00 18,4 14,1 9 5 ONO 1019,8 10
18.05.2018 13:00:00 - - - - - - -
18.05.2018 12:00:00 - - - - - - -
18.05.2018 11:00:00 16,5 13,0 5 3 NO 1020,2 10
18.05.2018 10:00:00 - - - - - - -
18.05.2018 09:00:00 - - - - - - -
18.05.2018 08:00:00 14,5 13,0 5 3 ZW 1019,3 10
18.05.2018 07:00:00 - - - - - - -
18.05.2018 06:00:00 - - - - - - -
18.05.2018 05:00:00 - - - - - - -
18.05.2018 04:00:00 - - - - - - -
18.05.2018 03:00:00 - - - - - - -
18.05.2018 02:00:00 - - - - - - -
18.05.2018 01:00:00 - - - - - - -
18.05.2018 00:00:00 - - - - - - -
17.05.2018 23:00:00 - - - - - - -
17.05.2018 22:00:00 - - - - - - -
17.05.2018 21:00:00 - - - - - - -
17.05.2018 20:00:00 16,4 12,9 5 3 ONO 1018,5 20
17.05.2018 19:00:00 - - - - - - -
17.05.2018 18:00:00 - - - - - - -
17.05.2018 17:00:00 16,9 12,2 8 4 ONO 1019,0 15
17.05.2018 16:00:00 - - - - - - -
17.05.2018 15:00:00 - - - - - - -
17.05.2018 14:00:00 16,9 12,4 8 4 ONO 1018,9 15
17.05.2018 13:00:00 - - - - - - -
17.05.2018 12:00:00 - - - - - - -
17.05.2018 11:00:00 15,5 11,9 8 4 NO 1018,7 15
17.05.2018 10:00:00 - - - - - - -
17.05.2018 09:00:00 - - - - - - -
17.05.2018 08:00:00 13,3 11,5 0 0 N 1019,0 15
17.05.2018 07:00:00 - - - - - - -
17.05.2018 06:00:00 - - - - - - -
17.05.2018 05:00:00 - - - - - - -
17.05.2018 04:00:00 - - - - - - -
17.05.2018 03:00:00 - - - - - - -
17.05.2018 02:00:00 - - - - - - -
17.05.2018 01:00:00 - - - - - - -

tt = temperatuur
td = dauwpunt
ff = windsnelheid
dd = windrichting
ppp = luchtdruk
vv = zicht

Weerstations in de omgeving